User: anonymous   Login
Location: Harbor Island
(32.3990°N, 80.4435°W)
Time: 14:50:29
(UTC-05:00)
Language:

Cosmos 1455 - Orbit

View from above orbital plane
View from above orbital plane
View from above satellite
View from above satellite

Ground track
Ground track

The orbit data is extracted from the following two-line orbital elements,

1 14032U 83037A   16337.50948785  .00001031  00000-0  50899-4 0  9997
2 14032  82.5167 281.4100 0016054 240.2460 119.7177 15.16685545831563
Epoch (UTC): 02 December 2016 12:13:39
Eccentricity: 0.0016054
inclination: 82.5167°
perigee height: 505 km
apogee height: 527 km
right ascension of ascending node: 281.4100°
argument of perigee: 240.2460°
revolutions per day: 15.16685545
mean anomaly at epoch: 119.7177°
orbit number at epoch: 83156

The dashed part of the orbit path shows where the satellite is in the earth's shadow,  

DLR